Time,TemperatureF,DewpointF,PressureIn,WindDirection,WindDirectionDegrees,WindSpeedMPH,WindSpeedGustMPH,Humidity,HourlyPrecipIn,Conditions,Clouds,dailyrainin,SoftwareType,DateUTC
2013-06-09 00:02:00,66.0,59.0,29.99,SSE,160,0.0,1.0,78,0.00,,,0.00,,2013-06-09 05:02:00,
2013-06-09 00:12:00,66.0,59.0,29.99,SSE,160,0.0,1.0,78,0.00,,,0.00,,2013-06-09 05:12:00,
2013-06-09 00:22:00,66.0,60.0,29.99,SSE,160,0.0,1.0,80,0.00,,,0.00,,2013-06-09 05:22:00,
2013-06-09 00:32:00,66.0,60.0,29.99,SSE,160,0.0,1.0,80,0.00,,,0.00,,2013-06-09 05:32:00,
2013-06-09 00:42:00,66.0,60.0,29.99,SSE,160,0.0,1.0,80,0.00,,,0.00,,2013-06-09 05:42:00,
2013-06-09 00:52:00,66.0,60.0,29.99,SSE,160,0.0,1.0,80,0.00,,,0.00,,2013-06-09 05:52:00,
2013-06-09 01:02:00,66.0,60.0,29.99,SSE,160,0.0,1.0,80,0.00,,,0.00,,2013-06-09 06:02:00,
2013-06-09 01:22:00,64.0,59.0,29.98,SSE,160,0.0,1.0,83,0.00,,,0.00,,2013-06-09 06:22:00,
2013-06-09 01:32:00,64.0,59.0,29.98,SSE,160,0.0,1.0,83,0.00,,,0.00,,2013-06-09 06:32:00,
2013-06-09 01:42:00,64.0,59.0,29.98,SSE,160,0.0,1.0,83,0.00,,,0.00,,2013-06-09 06:42:00,
2013-06-09 01:52:00,64.0,59.0,29.98,SSE,160,0.0,1.0,83,0.00,,,0.00,,2013-06-09 06:52:00,
2013-06-09 02:02:00,64.0,59.0,29.98,SSE,160,0.0,1.0,83,0.00,,,0.00,,2013-06-09 07:02:00,
2013-06-09 02:22:00,64.0,59.0,29.97,SSE,160,1.0,4.0,83,0.00,,,0.00,,2013-06-09 07:22:00,
2013-06-09 02:32:00,64.0,59.0,29.97,SSE,160,1.0,4.0,83,0.00,,,0.00,,2013-06-09 07:32:00,
2013-06-09 02:42:00,64.0,59.0,29.97,SSE,160,1.0,4.0,83,0.00,,,0.00,,2013-06-09 07:42:00,
2013-06-09 02:52:00,64.0,59.0,29.97,SSE,160,1.0,4.0,83,0.00,,,0.00,,2013-06-09 07:52:00,
2013-06-09 03:02:00,64.0,59.0,29.97,SSE,160,1.0,4.0,83,0.00,,,0.00,,2013-06-09 08:02:00,
2013-06-09 03:22:00,63.0,58.0,29.97,SSE,160,0.0,3.0,83,0.00,,,0.00,,2013-06-09 08:22:00,
2013-06-09 03:32:00,63.0,58.0,29.97,SSE,160,0.0,3.0,83,0.00,,,0.00,,2013-06-09 08:32:00,
2013-06-09 03:42:00,63.0,58.0,29.97,SSE,160,0.0,3.0,83,0.00,,,0.00,,2013-06-09 08:42:00,
2013-06-09 03:53:00,62.0,57.0,29.97,SSE,160,0.0,3.0,84,0.00,,,0.00,,2013-06-09 08:53:00,
2013-06-09 04:02:00,62.0,57.0,29.97,SSE,160,0.0,3.0,84,0.00,,,0.00,,2013-06-09 09:02:00,
2013-06-09 04:12:00,62.0,57.0,29.97,SSE,160,0.0,3.0,84,0.00,,,0.00,,2013-06-09 09:12:00,
2013-06-09 04:22:00,62.0,57.0,29.97,SSE,160,0.0,3.0,84,0.00,,,0.00,,2013-06-09 09:22:00,
2013-06-09 04:33:00,62.0,57.0,29.97,SSE,160,0.0,3.0,84,0.00,,,0.00,,2013-06-09 09:33:00,
2013-06-09 05:23:00,62.0,57.0,29.97,SSE,160,1.0,3.0,83,0.00,,,0.00,,2013-06-09 10:23:00,
2013-06-09 05:32:00,62.0,57.0,29.97,SSE,160,1.0,3.0,83,0.00,,,0.00,,2013-06-09 10:32:00,
2013-06-09 05:43:00,62.0,57.0,29.97,SSE,160,1.0,3.0,83,0.00,,,0.00,,2013-06-09 10:43:00,
2013-06-09 05:52:00,63.0,57.0,29.97,SSE,160,0.0,3.0,82,0.00,,,0.00,,2013-06-09 10:52:00,
2013-06-09 06:02:00,63.0,57.0,29.97,SSE,160,0.0,3.0,82,0.00,,,0.00,,2013-06-09 11:02:00,
2013-06-09 06:12:00,63.0,57.0,29.97,SSE,160,0.0,3.0,82,0.00,,,0.00,,2013-06-09 11:12:00,
2013-06-09 06:22:00,63.0,57.0,29.97,SSE,160,0.0,3.0,82,0.00,,,0.00,,2013-06-09 11:22:00,
2013-06-09 06:32:00,63.0,57.0,29.97,SSE,160,0.0,3.0,82,0.00,,,0.00,,2013-06-09 11:32:00,
2013-06-09 06:53:00,64.0,58.0,29.97,SSE,160,1.0,5.0,81,0.00,,,0.00,,2013-06-09 11:53:00,
2013-06-09 07:02:00,64.0,58.0,29.97,SSE,160,1.0,5.0,81,0.00,,,0.00,,2013-06-09 12:02:00,
2013-06-09 07:12:00,64.0,58.0,29.97,SSE,160,1.0,5.0,81,0.00,,,0.00,,2013-06-09 12:12:00,
2013-06-09 07:22:00,64.0,58.0,29.97,SSE,160,1.0,5.0,81,0.00,,,0.00,,2013-06-09 12:22:00,
2013-06-09 07:32:00,64.0,58.0,29.97,SSE,160,1.0,5.0,81,0.00,,,0.00,,2013-06-09 12:32:00,
2013-06-09 07:52:00,66.0,59.0,29.97,SE,129,3.0,9.0,77,0.00,,,0.00,,2013-06-09 12:52:00,
2013-06-09 08:02:00,66.0,59.0,29.97,SE,129,3.0,9.0,77,0.00,,,0.00,,2013-06-09 13:02:00,
2013-06-09 08:12:00,66.0,59.0,29.97,SE,129,3.0,9.0,77,0.00,,,0.00,,2013-06-09 13:12:00,
2013-06-09 08:22:00,67.0,59.0,29.97,SE,146,2.0,8.0,76,-99.99,,,-99.99,,2013-06-09 13:22:00,
2013-06-09 08:32:00,67.0,59.0,29.97,SE,146,2.0,8.0,76,-99.99,,,-99.99,,2013-06-09 13:32:00,
2013-06-09 08:42:00,69.0,60.0,29.97,SE,136,2.0,7.0,73,0.00,,,0.00,,2013-06-09 13:42:00,
2013-06-09 08:52:00,69.0,60.0,29.97,SE,136,2.0,7.0,73,0.00,,,0.00,,2013-06-09 13:52:00,
2013-06-09 09:02:00,69.0,60.0,29.97,SE,136,2.0,7.0,73,0.00,,,0.00,,2013-06-09 14:02:00,
2013-06-09 09:12:00,69.0,60.0,29.97,SE,136,2.0,7.0,73,0.00,,,0.00,,2013-06-09 14:12:00,
2013-06-09 09:22:00,71.0,61.0,29.96,SE,141,2.0,7.0,70,-99.99,,,-99.99,,2013-06-09 14:22:00,
2013-06-09 09:32:00,71.0,61.0,29.96,SE,141,2.0,7.0,70,-99.99,,,-99.99,,2013-06-09 14:32:00,
2013-06-09 09:43:00,71.0,61.0,29.96,SE,141,2.0,7.0,70,-99.99,,,-99.99,,2013-06-09 14:43:00,
2013-06-09 09:52:00,74.0,61.0,29.96,SSE,148,3.0,11.0,64,0.00,,,0.00,,2013-06-09 14:52:00,
2013-06-09 10:02:00,74.0,61.0,29.96,SSE,148,3.0,11.0,64,0.00,,,0.00,,2013-06-09 15:02:00,
2013-06-09 10:12:00,74.0,61.0,29.96,SSE,148,3.0,11.0,64,0.00,,,0.00,,2013-06-09 15:12:00,
2013-06-09 10:22:00,76.0,62.0,29.96,SSE,153,3.0,7.0,61,0.00,,,0.00,,2013-06-09 15:22:00,
2013-06-09 10:33:00,76.0,62.0,29.96,SSE,153,3.0,7.0,61,0.00,,,0.00,,2013-06-09 15:33:00,
2013-06-09 10:43:00,76.0,62.0,29.96,SSE,153,3.0,7.0,61,0.00,,,0.00,,2013-06-09 15:43:00,
2013-06-09 10:53:00,76.0,62.0,29.96,SSE,153,3.0,7.0,61,0.00,,,0.00,,2013-06-09 15:53:00,
2013-06-09 11:03:00,76.0,62.0,29.96,SSE,153,3.0,7.0,61,0.00,,,0.00,,2013-06-09 16:03:00,
2013-06-09 11:23:00,79.0,61.0,29.94,SSW,207,5.0,13.0,55,0.00,,,0.00,,2013-06-09 16:23:00,
2013-06-09 11:33:00,79.0,61.0,29.94,SSW,207,5.0,13.0,55,0.00,,,0.00,,2013-06-09 16:33:00,
2013-06-09 11:43:00,79.0,61.0,29.94,SSW,207,5.0,13.0,55,0.00,,,0.00,,2013-06-09 16:43:00,
2013-06-09 11:53:00,79.0,61.0,29.94,SSW,207,5.0,13.0,55,0.00,,,0.00,,2013-06-09 16:53:00,
2013-06-09 12:02:00,79.0,61.0,29.94,SSW,207,5.0,13.0,55,0.00,,,0.00,,2013-06-09 17:02:00,
2013-06-09 12:52:00,81.0,60.0,29.91,South,179,4.0,15.0,49,0.00,,,0.00,,2013-06-09 17:52:00,
2013-06-09 13:02:00,81.0,60.0,29.91,South,179,4.0,15.0,49,0.00,,,0.00,,2013-06-09 18:02:00,
2013-06-09 13:12:00,81.0,60.0,29.91,South,179,4.0,15.0,49,0.00,,,0.00,,2013-06-09 18:12:00,
2013-06-09 13:21:00,81.0,60.0,29.91,South,179,4.0,15.0,49,0.00,,,0.00,,2013-06-09 18:21:00,
2013-06-09 13:32:00,81.0,60.0,29.91,South,179,4.0,15.0,49,0.00,,,0.00,,2013-06-09 18:32:00,
2013-06-09 13:52:00,79.0,58.0,29.89,SE,145,5.0,13.0,49,0.00,,,0.00,,2013-06-09 18:52:00,
2013-06-09 14:02:00,79.0,58.0,29.89,SE,145,5.0,13.0,49,0.00,,,0.00,,2013-06-09 19:02:00,
2013-06-09 14:12:00,79.0,58.0,29.89,SE,145,5.0,13.0,49,0.00,,,0.00,,2013-06-09 19:12:00,
2013-06-09 14:22:00,79.0,58.0,29.88,SE,146,6.0,15.0,49,0.00,,,0.00,,2013-06-09 19:22:00,
2013-06-09 14:32:00,79.0,58.0,29.88,SE,146,6.0,15.0,49,0.00,,,0.00,,2013-06-09 19:32:00,
2013-06-09 14:43:00,79.0,58.0,29.88,SE,146,6.0,15.0,49,0.00,,,0.00,,2013-06-09 19:43:00,
2013-06-09 14:52:00,79.0,58.0,29.88,SE,146,6.0,15.0,49,0.00,,,0.00,,2013-06-09 19:52:00,
2013-06-09 15:02:00,79.0,58.0,29.88,SE,146,6.0,15.0,49,0.00,,,0.00,,2013-06-09 20:02:00,
2013-06-09 15:22:00,79.0,58.0,29.86,South,179,5.0,13.0,48,0.00,,,0.00,,2013-06-09 20:22:00,
2013-06-09 15:32:00,79.0,58.0,29.86,South,179,5.0,13.0,48,0.00,,,0.00,,2013-06-09 20:32:00,
2013-06-09 15:42:00,79.0,58.0,29.86,South,179,5.0,13.0,48,0.00,,,0.00,,2013-06-09 20:42:00,
2013-06-09 15:52:00,78.0,58.0,29.86,SE,138,4.0,11.0,50,0.00,,,0.00,,2013-06-09 20:52:00,
2013-06-09 16:02:00,78.0,58.0,29.86,SE,138,4.0,11.0,50,0.00,,,0.00,,2013-06-09 21:02:00,
2013-06-09 16:12:00,78.0,58.0,29.86,SE,138,4.0,11.0,50,0.00,,,0.00,,2013-06-09 21:12:00,
2013-06-09 16:22:00,78.0,58.0,29.86,SE,138,4.0,11.0,50,0.00,,,0.00,,2013-06-09 21:22:00,
2013-06-09 16:33:00,78.0,58.0,29.86,SE,138,4.0,11.0,50,0.00,,,0.00,,2013-06-09 21:33:00,
2013-06-09 18:52:00,72.0,64.0,29.83,SSE,150,1.0,6.0,75,0.00,,,0.00,,2013-06-09 23:52:00,
2013-06-09 19:02:00,72.0,64.0,29.83,SSE,150,1.0,6.0,75,0.00,,,0.00,,2013-06-10 00:02:00,
2013-06-09 19:13:00,72.0,64.0,29.83,SSE,150,1.0,6.0,75,0.00,,,0.00,,2013-06-10 00:13:00,
2013-06-09 19:22:00,72.0,64.0,29.83,SSE,150,1.0,6.0,75,0.00,,,0.00,,2013-06-10 00:22:00,
2013-06-09 19:32:00,72.0,64.0,29.83,SSE,150,1.0,6.0,75,0.00,,,0.00,,2013-06-10 00:32:00,
2013-06-09 19:52:00,69.0,64.0,29.83,SE,132,3.0,11.0,85,0.02,,,0.02,,2013-06-10 00:52:00,
2013-06-09 20:02:00,69.0,64.0,29.83,SE,132,3.0,11.0,85,0.02,,,0.02,,2013-06-10 01:02:00,
2013-06-09 20:12:00,69.0,64.0,29.83,SE,132,3.0,11.0,85,0.02,,,0.02,,2013-06-10 01:12:00,
2013-06-09 20:22:00,69.0,64.0,29.83,SE,132,3.0,11.0,85,0.02,,,0.02,,2013-06-10 01:22:00,
2013-06-09 20:32:00,69.0,64.0,29.83,SE,132,3.0,11.0,85,0.02,,,0.02,,2013-06-10 01:32:00,
2013-06-09 20:52:00,68.0,65.0,29.82,SE,137,0.0,2.0,90,0.00,,,0.02,,2013-06-10 01:52:00,
2013-06-09 21:02:00,68.0,65.0,29.82,SE,137,0.0,2.0,90,0.00,,,0.02,,2013-06-10 02:02:00,
2013-06-09 21:12:00,68.0,65.0,29.82,SE,137,0.0,2.0,90,0.00,,,0.02,,2013-06-10 02:12:00,
2013-06-09 21:22:00,67.0,64.0,29.82,SW,216,0.0,5.0,91,0.00,,,0.02,,2013-06-10 02:22:00,
2013-06-09 21:32:00,67.0,64.0,29.82,SW,216,0.0,5.0,91,0.00,,,0.02,,2013-06-10 02:32:00,
2013-06-09 21:42:00,67.0,64.0,29.82,SW,216,0.0,5.0,91,0.00,,,0.02,,2013-06-10 02:42:00,
2013-06-09 21:52:00,67.0,64.0,29.82,SW,216,0.0,5.0,91,0.00,,,0.02,,2013-06-10 02:52:00,
2013-06-09 22:02:00,67.0,64.0,29.82,SW,216,0.0,5.0,91,0.00,,,0.02,,2013-06-10 03:02:00,
2013-06-09 22:53:00,66.0,64.0,29.83,WSW,247,0.0,2.0,92,0.00,,,0.02,,2013-06-10 03:53:00,
2013-06-09 23:03:00,66.0,64.0,29.83,WSW,247,0.0,2.0,92,0.00,,,0.02,,2013-06-10 04:03:00,
2013-06-09 23:12:00,66.0,64.0,29.83,WSW,247,0.0,2.0,92,0.00,,,0.02,,2013-06-10 04:12:00,
2013-06-09 23:23:00,66.0,64.0,29.83,WSW,247,0.0,2.0,92,0.00,,,0.02,,2013-06-10 04:23:00,
2013-06-09 23:33:00,66.0,64.0,29.83,WSW,247,0.0,2.0,92,0.00,,,0.02,,2013-06-10 04:33:00,